Tiempo cada hora Arganda del Rey

Hoy, 21 Junio, Lunes

Tiempo Temperatura Precipitaciones Viento Presión Humedad
00:00 +14°C° 0 mm 3 mps 701 mmHg 84%
01:00 +14°C° 0 mm 3 mps 701 mmHg 85%
02:00 +13°C° 0 mm 4 mps 701 mmHg 85%
03:00 +13°C° 0 mm 5 mps 701 mmHg 85%
04:00 +12°C° 0 mm 5 mps 701 mmHg 81%
05:00 +12°C° 0 mm 5 mps 702 mmHg 78%
06:00 +12°C° 0 mm 5 mps 702 mmHg 74%
07:00 +13°C° 0 mm 6 mps 702 mmHg 67%
08:00 +15°C° 0 mm 6 mps 702 mmHg 61%
09:00 +16°C° 0 mm 7 mps 703 mmHg 54%
10:00 +17°C° 0 mm 7 mps 703 mmHg 50%
11:00 +19°C° 0 mm 6 mps 703 mmHg 46%
12:00 +21°C° 0 mm 6 mps 703 mmHg 41%
13:00 +21°C° 0 mm 6 mps 703 mmHg 40%
14:00 +21°C° 0 mm 6 mps 703 mmHg 39%
15:00 +22°C° 0 mm 7 mps 703 mmHg 37%
16:00 +22°C° 0 mm 6 mps 703 mmHg 38%
17:00 +21°C° 0 mm 6 mps 703 mmHg 39%
18:00 +21°C° 0 mm 6 mps 703 mmHg 40%
19:00 +20°C° 0 mm 5 mps 703 mmHg 44%
20:00 +19°C° 0 mm 4 mps 703 mmHg 48%
21:00 +18°C° 0 mm 4 mps 704 mmHg 52%
22:00 +18°C° 0 mm 3 mps 704 mmHg 55%
23:00 +17°C° 0 mm 2 mps 703 mmHg 58%

Mañana, 22 Junio, Martes

Tiempo Temperatura Precipitaciones Viento Presión Humedad
00:00 +16°C° 0 mm 2 mps 703 mmHg 60%
01:00 +16°C° 0 mm 2 mps 703 mmHg 62%
02:00 +15°C° 0 mm 2 mps 703 mmHg 63%
03:00 +15°C° 0 mm 1 mps 703 mmHg 65%
04:00 +15°C° 0 mm 1 mps 703 mmHg 64%
05:00 +15°C° 0 mm 1 mps 703 mmHg 64%
06:00 +15°C° 0 mm 1 mps 704 mmHg 63%
07:00 +18°C° 0 mm 1 mps 704 mmHg 58%
08:00 +19°C° 0 mm 1 mps 704 mmHg 52%
09:00 +21°C° 0 mm 1 mps 705 mmHg 47%
10:00 +22°C° 0 mm 1 mps 705 mmHg 42%
11:00 +23°C° 0 mm 2 mps 705 mmHg 38%
12:00 +24°C° 0 mm 2 mps 705 mmHg 34%
13:00 +24°C° 0 mm 2 mps 705 mmHg 33%
14:00 +25°C° 0 mm 2 mps 704 mmHg 33%
15:00 +25°C° 0 mm 3 mps 704 mmHg 32%
16:00 +24°C° 0 mm 3 mps 704 mmHg 34%
17:00 +24°C° 0 mm 3 mps 704 mmHg 35%
18:00 +24°C° 0 mm 3 mps 704 mmHg 37%
19:00 +22°C° 0 mm 3 mps 705 mmHg 40%
20:00 +21°C° 0 mm 3 mps 705 mmHg 43%
21:00 +20°C° 0 mm 3 mps 705 mmHg 46%
22:00 +19°C° 0.1 mm 3 mps 705 mmHg 51%
23:00 +18°C° 0.1 mm 3 mps 705 mmHg 55%

Pasado mañana, 23 Junio, Miércoles

Tiempo Temperatura Precipitaciones Viento Presión Humedad
00:00 +17°C° 0.1 mm 2 mps 705 mmHg 59%
01:00 +17°C° 0.1 mm 3 mps 705 mmHg 61%
02:00 +17°C° 0.1 mm 3 mps 705 mmHg 64%
03:00 +15°C° 0.1 mm 4 mps 704 mmHg 66%
04:00 +15°C° 0.2 mm 4 mps 705 mmHg 68%
05:00 +15°C° 0.2 mm 4 mps 705 mmHg 70%
06:00 +14°C° 0.2 mm 5 mps 705 mmHg 72%
07:00 +15°C° 0.1 mm 5 mps 705 mmHg 68%
08:00 +16°C° 0.1 mm 5 mps 705 mmHg 63%
09:00 +17°C° 0.1 mm 5 mps 706 mmHg 59%
10:00 +19°C° 0 mm 4 mps 706 mmHg 53%
11:00 +21°C° 0 mm 3 mps 706 mmHg 46%
12:00 +22°C° 0 mm 3 mps 706 mmHg 40%
13:00 +22°C° 0 mm 3 mps 706 mmHg 38%
14:00 +24°C° 0 mm 3 mps 706 mmHg 35%
15:00 +24°C° 0 mm 3 mps 706 mmHg 33%
16:00 +24°C° 0 mm 3 mps 706 mmHg 33%
17:00 +24°C° 0 mm 3 mps 706 mmHg 32%
18:00 +24°C° 0 mm 3 mps 706 mmHg 32%
19:00 +22°C° 0 mm 3 mps 706 mmHg 36%
20:00 +21°C° 0 mm 3 mps 707 mmHg 40%
21:00 +20°C° 0 mm 4 mps 707 mmHg 44%
22:00 +19°C° 0 mm 4 mps 707 mmHg 48%
23:00 +18°C° 0 mm 4 mps 707 mmHg 52%

24 Junio, Jueves

Tiempo Temperatura Precipitaciones Viento Presión Humedad
00:00 +17°C° 0 mm 3 mps 707 mmHg 56%
01:00 +16°C° 0 mm 3 mps 707 mmHg 59%
02:00 +16°C° 0 mm 3 mps 707 mmHg 61%
03:00 +14°C° 0 mm 3 mps 707 mmHg 63%
04:00 +14°C° 0 mm 3 mps 707 mmHg 64%
05:00 +14°C° 0 mm 3 mps 707 mmHg 64%
06:00 +14°C° 0 mm 3 mps 707 mmHg 65%
07:00 +17°C° 0 mm 3 mps 708 mmHg 57%
08:00 +19°C° 0 mm 3 mps 708 mmHg 50%
09:00 +21°C° 0 mm 3 mps 708 mmHg 42%
10:00 +24°C° 0 mm 2 mps 708 mmHg 38%
11:00 +25°C° 0 mm 1 mps 708 mmHg 33%
12:00 +24°C° 0 mm 0 mps 708 mmHg 28%
13:00 +27°C° 0 mm 1 mps 708 mmHg 26%
14:00 +28°C° 0 mm 1 mps 708 mmHg 24%
15:00 +29°C° 0 mm 1 mps 707 mmHg 23%
16:00 +29°C° 0 mm 1 mps 707 mmHg 22%
17:00 +29°C° 0 mm 1 mps 707 mmHg 22%
18:00 +29°C° 0 mm 1 mps 707 mmHg 22%
19:00 +28°C° 0 mm 2 mps 707 mmHg 23%
20:00 +26°C° 0 mm 2 mps 707 mmHg 25%
21:00 +25°C° 0 mm 2 mps 707 mmHg 27%
22:00 +24°C° 0 mm 2 mps 707 mmHg 31%
23:00 +22°C° 0 mm 3 mps 707 mmHg 36%

25 Junio, Viernes

Tiempo Temperatura Precipitaciones Viento Presión Humedad
00:00 +21°C° 0 mm 4 mps 707 mmHg 41%
01:00 +21°C° 0 mm 4 mps 707 mmHg 48%
02:00 +20°C° 0 mm 4 mps 707 mmHg 55%
03:00 +19°C° 0 mm 3 mps 707 mmHg 61%
04:00 +19°C° 0 mm 3 mps 707 mmHg 61%
05:00 +19°C° 0 mm 3 mps 707 mmHg 60%
06:00 +19°C° 0 mm 3 mps 708 mmHg 59%
07:00 +21°C° 0 mm 3 mps 708 mmHg 54%
08:00 +24°C° 0 mm 3 mps 708 mmHg 49%
09:00 +25°C° 0 mm 3 mps 708 mmHg 44%
10:00 +27°C° 0 mm 3 mps 708 mmHg 40%
11:00 +29°C° 0 mm 2 mps 708 mmHg 35%
12:00 +30°C° 0 mm 2 mps 708 mmHg 31%
13:00 +31°C° 0 mm 2 mps 707 mmHg 28%
14:00 +32°C° 0 mm 1 mps 707 mmHg 25%
15:00 +33°C° 0 mm 1 mps 707 mmHg 22%
16:00 +33°C° 0 mm 1 mps 707 mmHg 22%
17:00 +33°C° 0 mm 1 mps 706 mmHg 22%
18:00 +33°C° 0 mm 1 mps 706 mmHg 21%
19:00 +31°C° 0 mm 2 mps 706 mmHg 25%
20:00 +30°C° 0 mm 2 mps 707 mmHg 29%
21:00 +28°C° 0 mm 3 mps 707 mmHg 33%
22:00 +27°C° 0 mm 4 mps 707 mmHg 40%
23:00 +26°C° 0 mm 5 mps 707 mmHg 46%

26 Junio, Sábado

Tiempo Temperatura Precipitaciones Viento Presión Humedad
00:00 +25°C° 0 mm 5 mps 707 mmHg 52%
01:00 +23°C° 0 mm 5 mps 707 mmHg 54%
02:00 +22°C° 0 mm 4 mps 707 mmHg 55%
03:00 +21°C° 0 mm 4 mps 707 mmHg 56%
04:00 +21°C° 0 mm 3 mps 708 mmHg 55%
05:00 +21°C° 0 mm 3 mps 708 mmHg 54%
06:00 +21°C° 0 mm 3 mps 708 mmHg 52%
07:00 +24°C° 0 mm 3 mps 708 mmHg 47%
08:00 +26°C° 0 mm 3 mps 708 mmHg 42%
09:00 +28°C° 0 mm 3 mps 708 mmHg 36%
10:00 +30°C° 0 mm 3 mps 708 mmHg 33%
11:00 +31°C° 0 mm 3 mps 708 mmHg 30%
12:00 +34°C° 0 mm 3 mps 708 mmHg 27%
13:00 +35°C° 0 mm 2 mps 708 mmHg 25%
14:00 +36°C° 0 mm 2 mps 707 mmHg 22%
15:00 +36°C° 0 mm 2 mps 707 mmHg 20%
16:00 +36°C° 0 mm 2 mps 707 mmHg 20%
17:00 +36°C° 0 mm 2 mps 707 mmHg 20%
18:00 +36°C° 0 mm 2 mps 706 mmHg 20%
19:00 +34°C° 0 mm 3 mps 707 mmHg 24%
20:00 +31°C° 0 mm 3 mps 707 mmHg 29%
21:00 +29°C° 0 mm 3 mps 707 mmHg 33%
22:00 +28°C° 0 mm 3 mps 707 mmHg 35%
23:00 +27°C° 0 mm 2 mps 707 mmHg 37%
Mostrar más

Necesitamos Su Consentimiento

Meteoprog y nuestros Proveedores de Servicios pueden almacenar y acceder a sus datos personales como cookies, identificadores de dispositivo u otras tecnologías similares de su dispositivo y procesar dichos datos para personalizar contenido y anuncios, además de ofrecer funciones de redes sociales y analizar el tráfico.

  • Almacenar y/o acceder a información en su dispositivo

    Se puede almacenar o acceder a cookies, identificadores de dispositivo u otra información de su dispositivo para los fines anteriormente indicados.

  • Anuncios y contenido personalizados, medición de anuncios y contenido, percepciones del público, y desarrollo de productos

    Los anuncios y el contenido pueden personalizarse en base a su perfil. Se pueden añadir más datos para personalizar mejor los anuncios y contenidos. Se puede medir el rendimiento de los anuncios y contenidos. Se puede obtener la percepción sobre el público que ha visto los anuncios y contenidos. Dichos datos pueden usarse para desarrollar o mejorar la experiencia del usuario, sistemas y software.

Al hacer clic en ‘Estoy De Acuerdo’ usted permitirá el uso de las cookies, identificadores de dispositivo, balizas web u otras tecnologías similares indicadas. Su configuración puede cambiarse desde el navegador de su dispositivo.

Para ciertos fines, los intereses legítimos pueden ser considerados por encima del consentimiento. Puede leer más sobre ello en nuestra Política de Privacidad y Cookies.